This is the latest recevied weather packets stored in our database for station/object GBTWP-2. If no packets are shown the sender has not sent any weather packets the latest 10 day(s).
| Time | Temp. | Humidity | Pressure | Rain* | Wind** | Luminosity | Snow |
|---|---|---|---|---|---|---|---|
| 1788393420 | 29.44° C | 70% | 1015.3 hPa | 0 mm | - | 3 W/m² | - |
| 1788393119 | 30° C | 70% | 1015.3 hPa | 0 mm | - | 4 W/m² | - |
| 1788392820 | 30° C | 69% | 1015.3 hPa | 0 mm | - | 4 W/m² | - |
| 1788392519 | 30° C | 68% | 1015.4 hPa | 0 mm | - | 6 W/m² | - |
| 1788392221 | 30.56° C | 67% | 1015.4 hPa | 0 mm | - | 7 W/m² | - |
| 1788391919 | 30.56° C | 66% | 1015.5 hPa | 0 mm | - | 5 W/m² | - |
| 1788391620 | 30.56° C | 66% | 1015.3 hPa | 0 mm | - | 4 W/m² | - |
| 1788391319 | 30.56° C | 66% | 1015.1 hPa | 0 mm | - | 9 W/m² | - |
| 1788391020 | 30.56° C | 65% | 1015.2 hPa | 0 mm | - | 19 W/m² | - |
| 1788390719 | 31.11° C | 65% | 1015.2 hPa | 0 mm | - | 27 W/m² | - |
| 1788390420 | 31.11° C | 65% | 1015.2 hPa | 0 mm | - | 29 W/m² | - |
| 1788390119 | 31.11° C | 64% | 1014.9 hPa | 0 mm | - | 33 W/m² | - |
| 1788389820 | 31.11° C | 64% | 1015 hPa | 0 mm | - | 37 W/m² | - |
| 1788389519 | 31.11° C | 64% | 1015 hPa | 0 mm | - | 42 W/m² | - |
| 1788389220 | 31.11° C | 64% | 1014.9 hPa | 0 mm | - | 50 W/m² | - |
| 1788388919 | 31.11° C | 64% | 1015 hPa | 0 mm | - | 31 W/m² | - |
| 1788388621 | 31.11° C | 65% | 1015.2 hPa | 0 mm | - | 28 W/m² | - |
| 1788388319 | 31.11° C | 64% | 1015.2 hPa | 0 mm | - | 52 W/m² | - |
| 1788388020 | 31.67° C | 64% | 1015.1 hPa | 0 mm | - | 51 W/m² | - |
| 1788387719 | 31.67° C | 63% | 1015 hPa | 0 mm | - | 73 W/m² | - |
| 1788387419 | 32.22° C | 63% | 1015 hPa | 0 mm | - | 100 W/m² | - |
| 1788387119 | 31.67° C | 63% | 1015.1 hPa | 0 mm | - | 112 W/m² | - |
| 1788386820 | 32.22° C | 62% | 1015.2 hPa | 0 mm | - | 131 W/m² | - |
| 1788386519 | 32.22° C | 61% | 1015.1 hPa | 0 mm | - | 149 W/m² | - |
| 1788386220 | 32.22° C | 61% | 1015 hPa | 0 mm | - | 158 W/m² | - |
* Rain latest hour (hover to see other rain measurements)
** Current wind speed in m/s (hover to see current wind gust speed)